ORBCOMM FM104 [+]

Last updated on Thu Sep 07 2017 00:18:45 GMT+0000 (Coordinated Universal Time)

1 40090U 14040E 17249.57433075 -.00000057 00000-0 26008-4 0 9992 2 40090 47.0068 56.1795 0017940 236.1642 123.7534 14.53235547167354
UTC large
Height (km)
Speed (km/s)
/
Latitude / Longitude
Inclination (degrees)
Orbital Period (minutes)
Azimuth
Elevation
Range (km)
Doppler Factor

Next 0 passes for location: London (51.5072 / 0.1276)

Sorry there are no passes over London.
ORBCOMM FM104 [+]